SL-24 DEB

Satellite information

Favourite Embed

Satellite Type and Status

DEBRISIN ORBIT

Key statistics

Satellite SL-24 DEB at a glance.

Uptime

6600

Days in orbit

Revolutions

≈ 14.8

Per day

Orbit

SSO

Sun Synchronous Orbit

Inclination

97.8

Latest

Satellite identification and parameters

Extended collection of information and parameters for SL-24 DEB.

Object identification

Identified? True

Debris? True

Object name: SL-24 DEB

International designator: 2007-012D

Object number (NORAD): 31120

Object ID (CCSDS): 31120

Country: COMMONWEALTH OF INDEPENDENT STATES (CIS)

Current information (Y/N): Y

RCS size: MEDIUM

Orbital parameters

Period: 97.076 minutes

Inclination: 97.7698 deg

SMA: 6996.814 km

Apoapsis: 623.003 km

Periapsis: 614.356 km

RAAN: 98.3485 deg

Eccentricy: 0.0006179

Argument of periapsis: 353.9816 deg

Mean anomaly: 6.1323 deg

Mean motion: 14.83379335 rev/day

Mean motion (dot): 0.00001803 rev/day2

B* drag term: 0.00022608 1/REarth

Two-line elements (TLE)

Creation date: May 12, 2025, 2:31 a.m.

Reference frame: TEME

Reference center: EARTH

Epoch: May 11, 2025, 9:11 p.m. UTC

TLE line 0: 0 SL-24 DEB

TLE line 1: 1 31120U 07012D 25131.88301707 .00001803 00000-0 22608-3 0 9996

TLE line 2: 2 31120 97.7698 98.3485 0006179 353.9816 6.1323 14.83379335972986

Live tracking on map

Real-time ground track for satellite SL-24 DEB.

In-orbit conjunctions

A list of the most updated potential collisions computed for object SL-24 DEB.

Target Orbit TCA Probability of collision Miss distance Type
SL-14 R/B LEO 2024-12-18 23:49:19 0.0001816549 284.0 (m) ROCKET BODY
SL-14 R/B LEO 2024-07-23 10:48:42 0.0001198682 112.0 (m) ROCKET BODY

Associated space launch

Rideshare mission with Egyptian and Saudi Arabian Earth observation satellites as well as 14 American cubesats

SL-24 DEB was lifted into orbit during the mission ‘Dnepr | EgyptSat 1 & Saudisat 3’, on board a Dnepr space rocket.

The launch took place on April 17, 2007, 6:46 a.m. from 109/95.

For more information about the launch, click the button.

Launch to space Dnepr | EgyptSat 1 & Saudisat 3
Dnepr | EgyptSat 1 & Saudisat 3

Agency: N/A

Status: Launch Successful

Launch date: April 17, 2007, 6:46 a.m. UTC

Rocket: Dnepr

Launch pad: 109/95

Location: Baikonur Cosmodrome, Republic of Kazakhstan

...

Latest news about this satellite

There are no fresh news available about this satellite. Check back as we update our databases every day.


Newsletter sign-up

Weekly statistics, charts and insights to help you stay on top of the space industry.